Change the Weather History Date:

Wednesday, November 20, 2013

  Actual Average Record
Temperature  
Mean Temperature 38 °F -  
Max Temperature 46 °F 42 °F 64 °F (1989)
Min Temperature 30 °F 22 °F 12 °F (1985)
Degree Days  
Heating Degree Days 27    
Moisture  
Dew Point 31 °F    
Average Humidity 74    
Maximum Humidity 89    
Minimum Humidity 51    
Precipitation  
Precipitation 0.02 in - - ()
Sea Level Pressure  
Sea Level Pressure 29.94 in    
Wind  
Wind Speed 5 mph (East)    
Max Wind Speed 10 mph    
Max Gust Speed -    
Visibility 10 miles    
Events Rain    
Averages and records for this station are not official NWS values.
T = Trace of Precipitation, MM = Missing Value Source: NWS Daily Summary

Daily Weather History Graph

Daily Weather History Graph

Search for Another Location

Airport or City:

Trip Planner

Search our weather history database for the weather conditions in past years. The results will help you decide how hot, cold, wet, or windy it might be!

Date:

Astronomy

Nov. 20, 2013 Rise Set
Actual Time 7:13 AM MST 5:03 PM MST
Civil Twilight 6:44 AM MST 5:33 PM MST
Nautical Twilight 6:11 AM MST 6:05 PM MST
Astronomical Twilight 5:39 AM MST 6:37 PM MST
Moon 7:49 PM MST (11/20) 9:40 AM MST (11/20)
Length of Visible Light 10h 49m
Length of Day
9h 50m
Waning Gibbous, 91% of the Moon is Illuminated
Nov 20
Waning Gibbous
Nov 25
Last Quarter
Dec 2
New
Dec 9
First Quarter
Dec 17
Full

Hourly Weather History & Observations

Time (MST) Temp. Windchill Dew Point Humidity Pressure Visibility Wind Dir Wind Speed Gust Speed Precip Events Conditions
12:53 AM 36.0 °F 32.1 °F 27.0 °F 70% 29.98 in 10.0 mi North 4.6 mph - N/A   Overcast
1:53 AM 33.1 °F 26.9 °F 26.1 °F 75% 29.98 in 10.0 mi North 6.9 mph - N/A   Clear
2:53 AM 32.0 °F 25.6 °F 26.1 °F 79% 30.00 in 10.0 mi NNE 6.9 mph - N/A   Scattered Clouds
3:53 AM 34.0 °F 26.0 °F 27.0 °F 75% 29.97 in 10.0 mi NNE 10.4 mph - N/A   Overcast
4:53 AM 33.1 °F - 27.0 °F 78% 29.97 in 10.0 mi Calm Calm - N/A   Scattered Clouds
5:53 AM 30.0 °F 25.2 °F 25.0 °F 82% 29.98 in 10.0 mi NNW 4.6 mph - N/A   Clear
6:53 AM 30.0 °F - 25.0 °F 82% 29.99 in 10.0 mi Calm Calm - N/A   Clear
7:53 AM 33.1 °F 27.7 °F 27.0 °F 78% 29.99 in 10.0 mi North 5.8 mph - N/A   Clear
8:53 AM 37.0 °F - 28.9 °F 73% 29.98 in 10.0 mi Calm Calm - N/A   Clear
9:53 AM 36.0 °F 33.3 °F 28.9 °F 76% 29.99 in 10.0 mi SW 3.5 mph - N/A   Clear
10:53 AM 41.0 °F - 30.0 °F 65% 29.97 in 10.0 mi Calm Calm - N/A   Clear
11:53 AM 43.0 °F 41.3 °F 30.0 °F 60% 29.93 in 10.0 mi South 3.5 mph - N/A   Overcast
12:53 PM 45.0 °F 42.6 °F 30.0 °F 56% 29.89 in 10.0 mi Variable 4.6 mph - N/A   Mostly Cloudy
1:53 PM 46.0 °F 43.9 °F 30.0 °F 54% 29.88 in 10.0 mi SE 4.6 mph - N/A   Scattered Clouds
2:53 PM 46.0 °F 44.8 °F 28.9 °F 51% 29.88 in 10.0 mi SE 3.5 mph - N/A   Overcast
3:53 PM 46.0 °F - 28.9 °F 51% 29.88 in 10.0 mi Calm Calm - N/A   Overcast
4:53 PM 45.0 °F 43.5 °F 28.9 °F 53% 29.90 in 10.0 mi SSE 3.5 mph - N/A   Overcast
5:53 PM 43.0 °F - 33.1 °F 68% 29.93 in 10.0 mi Calm Calm - N/A   Overcast
6:26 PM 42.1 °F 39.2 °F 33.1 °F 70% 29.88 in 10.0 mi East 4.6 mph - N/A   Overcast
6:53 PM 39.9 °F 34.5 °F 34.0 °F 79% 29.95 in 10.0 mi East 8.1 mph - N/A   Overcast
7:41 PM 39.0 °F 32.8 °F 33.1 °F 79% 29.89 in 10.0 mi East 9.2 mph - N/A   Overcast
7:53 PM 39.0 °F 33.4 °F 33.1 °F 79% 29.95 in 10.0 mi East 8.1 mph - N/A   Overcast
8:29 PM 39.0 °F 33.4 °F 34.0 °F 82% 29.90 in 10.0 mi East 8.1 mph - 0.00 in Rain Light Rain
8:53 PM 37.9 °F 32.7 °F 34.0 °F 86% 29.94 in 10.0 mi East 6.9 mph - 0.00 in Rain Light Rain
9:38 PM 37.9 °F 33.5 °F 35.1 °F 89% 29.90 in 10.0 mi ENE 5.8 mph - 0.00 in   Overcast
9:50 PM 37.4 °F 33.8 °F 33.8 °F 87% 29.90 in 10.0 mi East 4.6 mph - 0.00 in   Overcast
9:53 PM 37.9 °F 34.4 °F 34.0 °F 86% 29.95 in 10.0 mi East 4.6 mph - 0.00 in   Overcast
10:33 PM 37.9 °F 35.5 °F 35.1 °F 89% 29.90 in 10.0 mi ENE 3.5 mph - 0.00 in Rain Light Rain
10:53 PM 37.9 °F 34.4 °F 35.1 °F 89% 29.92 in 7.0 mi ENE 4.6 mph - 0.01 in Rain Light Rain
11:53 PM 37.9 °F 35.5 °F 35.1 °F 89% 29.91 in 10.0 mi SE 3.5 mph - 0.01 in Rain Light Rain